Wind_Speed
70 70 71 71 71 72 72 72 73 73 74 74 75 75 76 76 76 76 76 75 74 74 73 72 72 71 71 71 70 69 68 68 68 69 70 71 72 73 74 75 75 76 76 77 78 78 78 76 74 71 69 67 66 64 63 62 61 61 60 59 59 58 57 55 53 53 56 58 59 60 62 63 63 63 62 62 64 66 66 66 68 69 71 72 70
70 71 71 71 71 71 72 72 73 73 74 74 75 75 75 75 75 74 74 73 72 72 71 71 71 71 71 71 70 69 69 69 70 71 72 73 74 75 76 77 77 78 79 79 80 79 78 76 73 70 68 67 65 64 63 63 62 62 61 60 60 60 58 57 56 54 55 58 58 58 59 60 61 62 63 62 63 66 66 67 68 69 71 73 74
69 70 70 70 70 70 70 71 71 71 72 72 73 73 73 73 72 72 71 71 71 70 70 70 71 71 71 70 70 69 70 71 72 73 75 76 77 77 78 79 80 81 82 82 81 80 77 74 72 70 68 67 66 65 64 64 64 63 63 62 61 61 60 59 58 57 57 59 61 60 59 60 60 61 63 63 63 64 66 67 68 69 71 72 74
67 67 67 67 67 67 67 68 68 69 69 70 70 70 70 70 70 70 70 69 69 69 69 70 70 70 70 70 70 70 71 73 74 76 77 78 79 79 80 81 82 83 83 83 81 78 75 73 72 71 69 68 67 66 66 65 65 64 63 63 62 62 61 60 59 58 57 58 61 62 61 62 62 63 64 65 64 64 65 67 67 68 70 71 72
64 63 63 63 64 64 65 65 66 67 68 69 69 69 69 69 69 69 69 68 68 69 69 70 70 70 70 70 71 72 74 75 77 78 79 80 80 81 82 83 84 84 83 81 79 76 74 72 71 71 70 70 69 68 67 66 66 66 65 64 64 63 62 62 61 60 59 59 60 62 62 63 64 65 66 66 66 65 65 67 68 68 69 71 73
60 60 61 62 62 63 64 64 65 66 67 68 68 68 68 68 68 68 68 68 69 69 69 69 70 70 71 72 73 74 76 78 79 80 81 81 82 83 84 85 84 83 81 79 76 74 73 72 71 71 71 71 70 69 69 68 68 67 66 65 65 64 64 63 63 62 62 62 62 63 64 63 64 65 67 67 67 67 67 67 68 68 69 71 73
59 60 60 61 62 63 63 64 64 65 66 67 66 67 67 68 68 68 68 68 68 68 69 69 70 71 72 74 75 77 78 79 80 81 82 83 84 85 85 84 83 81 78 76 74 73 72 72 71 72 71 71 71 70 69 69 69 69 68 67 67 66 66 65 65 65 65 65 65 65 65 65 65 66 68 69 68 68 68 68 68 69 69 71 73
59 60 61 61 62 62 63 63 64 65 65 66 66 67 67 67 67 67 67 67 67 68 69 70 71 72 74 76 77 79 80 80 81 82 83 84 84 84 83 82 80 77 75 74 73 72 72 72 71 71 72 72 72 72 71 71 70 70 70 70 69 68 68 67 67 67 67 67 68 69 68 68 68 67 68 70 70 70 70 69 69 70 70 71 73
60 61 61 62 62 63 63 63 63 64 65 66 67 67 66 66 66 66 66 67 67 68 70 71 72 74 76 78 79 80 81 82 83 84 84 84 83 82 81 78 76 74 74 73 73 73 72 72 72 72 72 73 73 74 73 72 72 71 70 70 69 68 67 67 67 67 68 69 70 71 71 71 71 70 70 71 72 72 72 71 70 71 72 71 73
61 62 62 62 62 62 62 62 63 64 65 66 66 65 65 64 65 65 66 67 68 69 71 73 74 76 78 80 81 81 81 82 83 83 83 82 81 79 77 75 74 73 73 73 73 73 73 73 73 73 73 74 75 75 75 74 73 71 70 68 67 65 64 64 64 65 65 67 69 71 72 72 73 73 72 73 74 74 74 73 71 72 74 73 74
61 62 62 62 62 61 62 62 63 63 64 65 64 63 63 64 64 65 67 68 69 71 73 75 76 78 79 80 81 81 81 82 82 81 81 80 78 76 74 73 73 73 73 73 73 73 74 74 75 75 75 75 75 75 75 74 72 71 69 66 64 62 61 60 60 61 62 64 66 69 71 72 73 74 73 73 75 76 76 75 72 72 74 75 75
61 61 61 61 61 61 61 61 61 62 63 63 62 62 63 64 65 66 68 69 71 73 75 76 77 78 79 79 80 80 80 80 79 79 78 77 74 73 72 72 72 72 72 73 74 74 75 76 76 76 75 75 74 74 73 72 70 69 67 65 62 61 59 57 56 57 58 60 63 67 70 71 72 74 73 73 74 76 77 77 75 73 74 76 77
60 60 60 60 60 60 60 60 60 61 62 61 61 62 63 64 66 67 70 71 73 74 75 76 77 78 78 78 78 78 78 78 78 77 75 74 72 72 72 73 72 73 73 74 76 76 76 76 76 76 75 74 72 71 70 68 67 66 65 63 62 60 59 58 56 54 54 56 58 62 67 69 70 72 73 72 71 74 77 78 77 74 73 76 79
59 59 59 59 59 59 58 59 59 60 61 61 61 63 64 65 67 69 71 72 73 73 74 75 77 77 77 77 76 76 76 76 76 75 73 72 72 72 73 73 73 74 75 76 77 77 76 75 75 74 73 71 69 67 66 65 64 64 63 62 61 60 59 58 56 54 52 52 53 57 61 65 67 70 72 70 68 70 74 77 78 76 73 76 79
58 57 57 57 57 57 58 58 59 60 60 61 62 64 65 67 68 70 70 71 72 73 74 76 76 76 76 76 75 75 75 75 74 73 72 72 72 73 73 74 74 75 76 77 77 77 76 75 73 71 69 67 66 64 64 63 62 61 62 61 60 59 58 56 54 52 51 50 51 52 55 59 63 66 69 68 65 66 70 74 77 77 74 74 78
56 56 56 57 56 57 57 58 59 60 61 62 63 65 66 67 68 69 70 71 72 74 75 75 75 75 75 75 75 75 75 74 73 72 72 73 73 74 74 75 75 76 77 77 77 77 75 73 70 68 67 65 64 63 62 61 60 60 61 61 61 60 58 56 53 50 48 47 48 49 51 54 58 61 64 65 63 63 65 69 74 76 74 73 75
56 56 56 56 56 57 57 59 60 61 62 63 64 65 66 67 68 69 70 72 73 74 75 75 75 74 74 74 74 75 74 73 72 72 73 74 74 74 75 75 76 76 77 77 76 74 72 70 67 66 65 64 63 62 62 61 60 60 60 60 61 60 59 57 54 50 46 44 44 45 47 50 53 55 57 60 62 62 61 63 69 72 73 72 74
56 57 57 57 57 58 59 60 61 62 63 63 64 65 67 68 69 70 71 72 74 75 75 75 74 74 73 74 74 74 73 72 72 73 74 74 75 75 75 76 76 76 76 75 73 70 68 67 66 65 64 63 63 62 62 61 60 59 58 59 59 59 58 56 55 52 48 45 43 42 43 46 49 50 51 55 58 59 57 58 63 67 70 72 73
58 58 58 58 59 59 60 61 63 64 64 65 65 67 68 69 70 71 72 74 75 76 76 75 74 73 73 74 74 73 72 72 73 74 74 74 74 75 75 75 76 75 74 72 70 68 66 66 65 65 64 63 63 63 62 60 59 57 57 57 57 56 54 52 50 49 48 46 43 41 41 42 44 45 46 50 53 54 54 54 57 62 67 71 74
59 59 59 60 60 61 62 63 64 65 66 67 68 69 70 71 72 72 73 75 76 77 77 75 74 73 73 74 73 72 72 72 73 74 74 74 74 74 75 75 74 73 71 69 68 67 66 66 65 65 64 63 63 62 61 59 56 55 54 54 53 51 48 46 45 43 43 43 41 40 39 38 38 39 41 45 48 50 50 50 52 57 64 70 73
61 61 61 61 61 62 63 64 65 66 67 68 69 70 71 72 73 73 75 76 77 78 77 75 73 73 73 73 72 71 72 72 73 73 73 73 73 73 74 73 72 70 68 68 67 67 66 66 65 64 64 63 61 60 59 56 54 52 52 52 50 47 44 42 41 39 38 39 39 37 36 35 33 34 37 41 44 45 46 46 47 53 61 68 71
62 62 62 62 62 63 63 64 65 66 67 68 69 70 72 72 74 74 76 77 78 78 76 73 73 73 73 71 70 70 71 71 71 71 71 71 72 72 72 70 68 68 67 67 66 66 65 65 64 63 62 61 59 57 55 53 51 50 51 51 50 46 42 40 39 37 36 35 36 35 33 31 30 31 34 37 39 40 41 42 44 49 58 66 70
63 63 63 63 63 63 63 64 65 66 67 69 70 71 72 73 74 75 77 78 78 76 74 72 72 72 71 70 70 70 71 71 71 71 71 71 72 71 69 68 66 66 66 66 65 65 64 63 63 61 60 58 56 53 53 52 51 50 50 50 48 45 42 39 37 35 34 33 33 32 30 29 28 29 31 33 34 35 36 38 41 46 55 64 69
64 64 64 63 63 64 64 65 66 66 68 69 71 72 73 74 75 76 78 78 77 74 72 72 71 70 69 69 70 70 71 71 71 71 71 71 70 69 67 66 66 65 65 65 64 64 63 62 61 59 57 55 53 52 52 52 51 50 49 48 46 43 40 37 35 33 31 30 29 29 28 26 25 25 26 28 29 31 32 34 38 44 53 62 68
65 64 64 64 64 65 65 65 66 67 69 70 72 73 74 74 76 77 78 77 74 72 72 71 70 69 68 69 70 70 71 71 71 71 71 70 68 67 66 65 65 65 64 63 62 62 61 60 59 57 55 52 51 52 52 51 50 50 48 45 43 40 38 36 33 31 29 28 27 26 25 23 22 22 23 23 25 26 28 32 36 42 51 60 67
65 65 65 65 65 65 66 66 67 68 70 71 73 74 75 75 77 78 76 74 72 71 71 70 68 68 68 69 70 70 70 70 70 70 69 68 66 65 65 65 64 63 62 61 60 60 59 58 57 55 53 51 51 51 51 51 50 50 48 45 41 38 36 34 32 29 26 25 23 22 21 20 19 19 19 20 21 23 25 30 35 42 50 59 66
65 65 65 65 65 66 67 67 68 69 71 72 73 74 76 77 77 76 73 71 71 71 70 68 67 68 69 69 70 70 70 70 70 69 68 66 65 65 64 63 63 61 60 59 58 58 58 57 55 54 52 50 50 51 52 52 51 49 48 44 40 37 34 32 30 27 24 22 21 19 18 17 16 16 16 17 18 20 23 29 35 42 50 59 65
64 64 65 65 66 66 67 68 69 70 72 73 74 75 76 76 74 72 71 71 70 69 67 67 67 68 69 69 70 70 70 70 69 68 67 65 65 64 63 62 61 59 58 57 56 56 56 55 54 52 51 49 50 52 53 54 52 49 47 43 39 36 33 30 27 25 22 20 18 17 16 15 14 13 13 14 16 18 23 29 36 43 51 59 65
64 64 65 65 66 67 68 69 70 72 72 73 74 75 74 72 70 69 70 69 68 66 66 67 68 68 69 69 69 69 69 69 68 67 65 65 64 63 62 60 58 57 55 54 54 54 53 53 52 51 49 48 50 52 53 53 53 50 46 43 39 35 33 30 27 23 20 18 16 15 13 12 12 11 10 12 14 18 24 30 36 44 51 59 65
64 65 65 66 67 68 69 70 72 73 73 73 73 71 69 68 68 68 67 66 66 66 66 67 68 69 69 69 69 69 69 68 67 66 65 64 62 61 59 57 55 53 52 51 51 51 51 51 50 49 48 47 49 50 50 51 51 49 46 42 39 35 32 29 26 22 19 16 14 12 11 10 9 9 9 11 14 19 25 31 37 45 52 59 65
65 66 67 67 68 69 71 72 73 72 71 70 68 67 66 66 66 65 65 65 65 66 67 68 68 69 68 68 68 68 68 67 65 64 63 62 60 58 56 54 51 50 49 48 48 48 48 49 49 49 48 47 48 48 47 48 48 47 44 41 39 36 32 29 26 22 18 15 13 11 9 8 7 7 8 10 14 19 25 32 38 45 52 59 65
67 68 68 69 70 71 71 71 70 68 67 66 65 64 64 64 63 63 64 65 66 67 68 68 68 68 67 67 67 67 66 65 64 63 61 60 57 55 53 50 48 46 46 46 45 45 46 48 49 49 48 47 47 46 46 45 46 45 43 39 37 35 32 28 25 22 18 14 13 11 8 7 6 6 8 10 14 20 26 32 39 45 52 59 65
68 69 69 70 69 69 67 65 64 63 63 63 62 62 62 62 62 63 64 66 67 68 68 68 67 66 66 66 66 65 64 63 62 61 59 56 54 51 48 46 45 44 44 43 43 44 44 46 48 49 49 48 46 45 44 44 43 43 42 38 35 33 31 27 24 21 17 14 12 10 8 6 5 6 8 11 15 20 26 32 39 46 53 59 64
68 68 68 66 64 62 61 60 60 60 60 60 60 60 60 61 62 64 65 67 67 68 67 66 65 65 65 65 64 64 63 62 60 58 56 53 50 47 44 42 42 41 41 41 41 42 42 44 47 49 49 48 46 45 44 43 42 41 40 38 35 33 30 27 23 20 17 14 11 9 7 6 6 7 9 11 15 20 26 33 39 45 52 59 64
65 63 61 59 57 56 56 56 57 57 57 57 58 59 60 62 63 65 66 66 66 66 65 64 64 65 64 64 63 62 61 60 58 55 52 49 46 43 41 40 39 39 38 39 39 40 41 43 45 47 48 48 47 45 43 42 40 39 38 37 35 33 31 28 24 20 17 14 11 9 8 6 6 7 9 11 14 19 25 32 38 44 52 59 65
59 56 54 53 54 55 55 55 55 56 57 58 59 60 62 63 64 65 65 65 64 63 62 63 64 64 63 62 61 60 58 56 54 51 48 45 42 40 39 38 37 37 37 37 38 39 40 42 43 45 46 47 47 45 43 42 40 38 36 34 33 31 30 28 25 21 18 14 11 9 8 7 6 7 10 12 15 19 23 29 35 42 49 57 64
57 55 54 53 53 54 54 54 55 56 58 59 61 62 63 64 64 64 63 62 61 62 63 63 62 62 61 60 59 57 55 52 49 47 44 41 39 38 37 36 35 35 36 37 37 38 40 41 42 43 44 45 46 45 44 42 40 38 36 34 31 29 28 26 24 21 18 15 12 10 8 7 7 8 11 13 16 19 23 27 33 38 45 53 61
58 57 55 53 52 52 53 54 56 57 59 60 61 62 62 62 61 61 60 60 61 62 63 64 63 61 59 58 56 53 51 48 45 43 40 38 37 36 35 34 34 34 35 36 37 38 39 40 41 41 42 43 44 44 43 42 40 39 37 34 32 30 28 26 24 22 19 16 13 10 9 8 8 9 11 12 15 18 22 26 30 35 42 49 57
59 58 55 53 52 53 54 56 57 59 60 60 60 60 59 58 58 59 59 60 62 63 63 62 61 60 58 56 53 50 46 43 41 39 37 36 36 35 34 33 33 33 34 35 36 37 38 38 40 40 41 41 41 42 42 41 40 39 37 35 33 31 29 27 26 24 20 17 14 11 10 9 9 10 11 12 14 18 21 25 29 33 39 46 54
60 58 56 54 54 55 56 56 57 58 58 57 57 56 56 57 58 59 60 61 62 62 61 60 59 57 55 53 50 47 43 40 38 36 35 34 34 34 33 32 32 33 34 35 36 37 37 38 38 39 39 39 39 40 40 40 40 39 37 36 33 31 29 27 25 24 22 19 15 12 10 9 9 10 11 12 15 17 20 24 28 32 37 42 50
59 58 57 56 56 56 56 56 56 55 54 54 54 55 57 58 60 60 61 61 61 60 59 58 56 53 51 48 45 43 40 38 36 35 34 33 32 31 31 31 32 33 34 35 36 36 37 37 37 37 38 38 38 38 38 39 39 38 37 36 34 31 29 27 25 24 22 20 17 13 10 9 10 10 11 12 15 17 20 23 26 31 35 40 46
57 58 58 57 57 56 56 54 54 53 54 55 57 58 59 60 60 60 60 60 59 58 56 54 52 50 47 43 40 39 37 36 34 34 33 32 30 29 29 30 31 32 34 35 35 36 37 37 37 37 37 37 37 36 36 37 37 37 37 36 34 32 30 27 25 23 21 20 18 15 12 9 9 10 11 12 14 17 19 22 25 29 33 38 43
56 57 57 56 56 55 54 54 54 55 57 58 59 60 60 59 59 58 57 57 56 55 52 50 48 46 44 40 37 35 35 34 33 33 32 31 30 29 29 29 30 32 33 35 36 36 37 37 37 36 36 36 36 35 35 35 35 35 36 35 34 33 31 28 25 23 21 19 18 16 14 11 9 9 11 13 14 16 19 22 25 28 32 36 41
55 55 55 54 54 54 55 55 57 58 59 59 59 59 58 57 56 56 55 54 53 51 49 46 44 42 40 38 35 33 32 32 32 31 30 30 29 29 30 30 31 31 32 34 35 36 37 37 37 37 36 36 35 35 34 33 33 33 34 34 34 33 32 30 27 25 22 20 18 17 15 12 10 9 10 12 14 16 18 21 24 27 31 35 39
52 53 53 53 54 55 56 57 58 58 58 58 57 56 55 55 54 53 52 51 49 47 45 42 39 37 36 36 35 33 32 31 30 29 29 29 29 29 30 31 32 32 33 33 34 35 36 37 38 38 37 36 35 34 33 32 32 32 32 33 33 33 32 31 29 27 24 21 19 17 15 14 12 10 9 10 13 15 18 20 23 26 29 33 37
51 52 53 54 55 55 56 56 56 56 55 54 53 53 53 52 51 50 48 47 46 43 41 39 37 35 34 34 33 33 32 30 29 28 28 28 29 30 31 31 32 33 33 34 34 35 35 37 38 38 37 35 34 33 33 32 32 32 32 31 32 32 31 31 30 28 26 23 21 18 16 15 13 11 10 9 11 14 17 19 22 25 28 31 35
52 52 53 54 54 54 54 53 52 52 51 51 51 51 50 49 47 46 44 43 41 39 37 35 34 34 33 33 32 30 30 29 29 28 28 28 29 31 32 32 32 33 33 34 34 34 35 36 37 37 37 36 34 33 32 32 32 32 32 31 31 30 30 30 29 28 27 25 23 20 18 15 14 12 11 10 10 12 15 18 21 24 27 30 33
52 51 52 52 51 51 50 50 49 49 49 49 48 48 46 45 43 42 40 39 37 35 34 33 32 32 32 31 30 29 29 29 29 29 29 29 30 31 32 32 33 34 34 34 34 34 34 35 36 35 35 35 35 34 33 33 33 33 32 32 31 30 30 29 28 27 27 26 25 23 20 18 15 14 12 11 11 11 13 16 19 22 26 28 32
49 49 49 48 48 48 48 48 48 48 47 46 45 44 43 41 40 38 37 35 34 33 32 31 31 30 29 29 28 28 28 29 29 30 30 31 31 32 32 33 33 33 34 34 35 35 34 34 34 33 33 33 34 34 34 34 34 33 33 33 32 32 30 29 28 27 26 25 25 24 22 21 19 16 14 13 12 12 13 14 17 20 24 27 30
46 46 46 46 46 46 46 46 45 45 44 43 42 40 39 38 37 35 34 33 32 32 31 31 31 30 30 29 28 28 28 28 29 30 31 31 32 32 33 33 34 35 35 36 36 36 35 34 33 33 33 33 33 34 34 34 34 34 34 33 33 32 32 30 29 28 27 26 25 24 23 22 21 19 18 16 14 13 13 14 15 18 21 25 28
44 44 44 44 45 44 44 43 42 41 40 39 38 37 37 36 35 34 33 32 32 31 31 31 31 31 31 31 31 30 30 30 30 31 31 31 31 32 32 33 33 35 36 37 36 36 35 34 34 34 34 33 33 33 33 33 33 33 33 33 33 32 32 31 31 30 28 27 26 25 23 23 22 21 20 19 17 16 15 14 15 16 19 22 25
Wind_Direction
275 276 277 279 280 281 282 284 284 285 286 286 287 288 289 290 291 292 294 295 296 298 299 299 299 300 300 300 300 300 299 299 299 300 300 301 302 302 302 303 303 304 304 304 304 304 304 303 301 300 298 296 295 293 292 290 289 287 286 284 283 281 278 276 272 269 269 268 265 264 264 264 263 262 258 254 250 247 244 241 238 235 233 231 230
275 276 278 279 281 282 282 283 283 284 285 285 286 287 288 290 291 293 294 295 296 297 298 298 298 299 299 299 299 299 299 300 300 301 301 302 303 303 304 304 304 304 305 305 305 305 304 303 301 300 299 297 296 295 294 292 291 289 287 285 283 282 279 277 274 271 270 270 267 264 263 261 260 261 259 256 252 249 245 242 239 236 233 232 230
276 277 278 280 280 281 281 282 282 283 284 286 287 288 289 291 292 293 294 295 296 297 297 298 298 298 299 299 300 300 300 301 301 301 302 303 304 304 305 305 305 305 306 306 306 305 304 303 302 300 299 298 296 295 294 292 291 289 288 286 284 282 280 277 274 271 269 269 268 265 263 261 258 258 258 256 253 250 247 243 239 236 234 232 230
277 278 279 280 280 281 281 282 283 284 286 287 288 289 290 291 292 293 295 296 296 297 297 297 298 299 299 300 300 301 301 301 302 303 303 304 305 305 305 306 306 306 306 306 306 305 304 302 301 300 298 297 296 295 294 292 291 289 288 286 285 283 281 278 275 271 268 266 266 264 262 260 259 256 255 255 253 250 247 244 240 236 234 232 229
278 278 279 279 280 281 282 283 285 286 287 287 288 290 291 292 293 294 295 296 296 297 297 298 299 299 300 300 301 301 301 302 303 304 304 305 305 306 306 306 306 306 306 306 305 304 303 301 300 299 298 298 297 296 294 293 292 290 288 287 285 283 281 279 276 273 269 266 264 263 261 258 257 256 254 252 251 249 246 243 240 236 233 231 229
278 278 279 280 281 282 284 285 286 287 287 288 289 291 291 292 293 294 295 295 296 297 297 298 299 300 300 300 301 301 302 303 304 304 305 305 305 306 306 306 306 306 306 305 304 303 302 301 300 300 299 298 297 296 295 294 292 291 289 287 286 284 281 279 277 274 271 268 265 263 260 257 255 254 253 250 248 247 245 242 239 236 232 229 228
278 279 280 281 283 284 285 286 287 288 288 289 290 291 291 292 293 294 294 295 296 297 297 298 299 300 300 300 301 302 303 304 304 305 305 305 305 306 306 306 306 306 305 304 303 303 302 301 301 300 299 298 297 296 295 294 293 292 290 289 286 284 282 280 277 274 272 269 267 263 261 258 254 252 251 250 247 244 243 240 238 236 232 228 227
279 280 282 283 284 285 286 287 287 288 289 289 290 290 291 292 293 293 294 295 296 297 298 299 300 300 300 301 302 303 304 304 304 304 304 305 305 306 306 306 306 305 305 304 304 303 303 302 302 301 300 299 299 298 297 295 294 293 291 289 287 285 283 280 278 276 273 270 267 265 262 259 255 251 249 249 247 244 241 238 236 235 232 228 226
280 281 283 284 284 285 286 286 287 287 288 289 289 290 291 292 293 294 295 296 297 298 299 299 300 301 301 302 303 304 304 304 304 304 305 306 306 306 306 306 306 306 306 305 305 304 304 303 303 302 301 301 300 299 298 297 295 293 291 290 288 286 284 281 279 276 274 271 268 265 263 260 256 252 248 247 246 244 241 238 234 233 232 227 225
281 282 283 284 284 285 286 286 287 287 288 288 289 291 292 293 294 295 296 297 298 298 299 300 301 302 302 303 303 304 304 304 305 305 306 307 307 307 307 307 307 307 307 307 306 306 305 304 304 304 303 303 302 301 300 298 297 295 293 291 289 287 285 282 279 276 273 271 268 266 263 260 257 253 248 246 245 244 242 239 234 231 231 228 224
282 282 283 284 285 285 286 286 287 287 288 289 291 292 293 294 295 296 297 298 298 299 300 301 302 303 303 304 304 304 305 305 306 306 307 307 308 308 308 308 308 308 308 307 307 306 306 306 306 306 305 305 304 302 301 300 299 297 296 293 291 288 285 282 278 275 272 269 267 265 263 260 257 254 249 245 244 243 241 240 235 230 229 228 225
283 283 284 284 285 285 286 286 287 288 289 291 292 293 294 295 296 297 298 299 300 301 302 303 304 304 304 305 305 305 305 306 306 307 308 308 309 309 309 309 309 309 308 308 308 308 308 308 307 307 306 305 304 303 302 301 300 299 298 296 294 291 287 282 277 273 270 268 265 264 262 260 258 256 252 247 243 241 240 240 237 231 228 226 225
283 283 284 284 285 286 287 288 288 289 291 293 294 294 295 296 297 298 299 300 302 303 304 304 305 305 305 305 305 306 306 307 308 308 309 309 310 310 310 310 310 310 310 309 309 309 309 308 308 307 307 306 305 304 304 303 303 302 301 300 297 294 291 286 281 275 271 267 264 262 261 260 258 257 255 250 244 241 239 239 237 233 228 225 224
283 284 285 285 286 288 288 289 290 291 292 293 294 295 296 297 298 299 301 302 303 304 305 305 305 305 305 305 306 307 307 308 309 310 310 310 311 311 311 311 311 311 311 310 310 309 309 309 308 307 307 306 306 306 306 305 305 304 303 302 300 297 293 290 286 282 276 270 265 262 260 260 258 256 255 253 247 242 239 238 237 234 230 225 222
284 286 287 288 289 290 290 291 291 292 293 294 295 296 297 298 299 301 302 303 304 305 305 306 306 306 306 306 307 308 309 310 310 311 311 311 311 312 312 312 312 311 311 310 310 310 309 309 309 308 308 308 308 308 307 307 307 307 306 305 302 299 296 293 290 286 282 276 271 265 261 259 257 255 255 254 250 244 239 237 236 234 231 226 222
286 287 288 289 291 292 292 292 292 293 293 294 295 297 298 299 300 301 303 304 305 305 306 306 306 306 306 307 308 309 310 311 311 311 311 312 312 313 313 312 312 311 311 311 310 310 310 310 310 310 310 310 310 310 310 311 311 311 310 307 305 302 300 297 294 290 285 280 275 269 264 260 256 255 254 254 251 246 240 236 235 234 231 227 222
288 289 290 291 292 292 292 292 293 293 294 295 297 298 299 300 301 302 303 304 305 306 306 307 307 307 307 308 309 311 311 311 311 312 312 313 313 313 313 312 312 312 311 311 311 311 311 311 312 312 312 313 313 314 314 314 314 313 311 309 306 304 303 301 298 295 290 284 278 272 267 263 259 255 253 252 251 247 242 236 233 232 230 227 223
289 290 291 292 292 292 292 293 293 294 295 297 298 298 299 300 301 303 304 304 305 306 307 307 308 308 308 309 311 311 312 312 312 312 313 313 313 313 313 313 312 312 312 312 312 312 313 313 314 314 315 316 316 317 317 316 315 314 312 309 307 305 304 302 300 297 294 289 283 276 269 265 262 257 253 250 250 247 244 238 232 229 227 225 223
289 290 291 291 292 292 293 293 294 295 296 297 298 299 299 301 302 303 304 305 306 307 308 308 308 308 309 310 311 311 312 312 312 312 313 313 313 313 313 312 312 312 313 313 314 314 315 315 316 317 317 318 319 319 318 317 316 315 312 309 307 304 303 301 298 296 294 290 286 281 275 269 264 260 254 250 249 247 243 238 231 226 224 223 222
288 289 290 291 291 292 292 293 294 295 296 297 298 299 300 301 302 303 304 305 306 307 307 308 308 308 310 311 311 311 311 312 312 313 313 314 314 313 313 313 314 314 315 315 316 316 317 317 318 319 320 320 321 320 318 317 316 314 312 309 307 306 306 303 300 297 294 291 287 284 280 274 268 262 255 250 248 246 242 238 231 224 222 221 220
287 288 289 290 290 291 292 293 294 295 296 296 297 298 299 301 302 303 304 305 306 306 307 307 308 309 310 310 311 311 311 312 313 313 313 314 314 314 314 315 316 316 317 317 317 318 318 318 319 320 321 321 321 319 317 316 316 316 315 313 311 311 311 308 304 300 296 292 289 286 282 278 270 262 255 250 248 245 241 237 230 222 219 219 219
287 288 288 289 290 290 291 292 293 294 295 295 297 298 299 300 302 303 303 304 305 305 306 307 308 309 309 310 310 310 311 312 313 313 314 315 315 315 316 316 317 318 318 318 318 318 318 319 320 320 321 321 320 319 317 318 320 321 321 319 317 316 315 312 308 304 299 295 291 288 284 279 272 263 256 251 248 245 240 235 228 220 216 216 216
286 287 288 288 289 290 290 291 292 293 294 295 296 297 298 300 301 302 302 303 304 305 305 306 307 308 309 310 310 311 312 313 314 315 316 316 316 317 317 317 318 318 318 318 318 318 319 319 320 321 321 321 320 320 321 323 325 326 325 323 321 320 318 315 311 307 303 298 293 290 286 280 273 265 259 254 250 246 239 232 225 217 213 214 214
285 286 287 288 289 289 290 291 292 293 293 294 295 296 297 299 300 301 302 303 303 304 305 306 307 308 309 310 311 312 314 315 316 316 316 317 317 317 318 318 319 319 318 318 318 319 319 319 320 321 321 321 323 325 326 327 328 329 328 326 324 322 319 317 313 310 306 300 295 291 288 283 276 268 261 255 250 245 237 228 221 214 211 211 212
284 285 286 287 288 288 289 290 291 292 293 293 294 295 297 298 299 300 301 302 303 304 305 307 308 309 310 311 312 314 315 315 316 316 317 317 318 318 318 319 319 318 318 318 318 319 319 319 320 321 322 325 328 329 329 330 331 332 330 328 326 325 322 319 316 312 308 303 297 293 289 285 278 271 262 254 247 241 233 223 215 210 208 208 210
283 284 285 286 287 288 289 289 290 291 291 292 293 295 297 298 299 300 301 302 303 304 306 307 308 309 311 312 314 314 315 315 316 316 317 318 318 319 319 319 318 318 318 318 319 319 319 319 320 322 326 329 330 330 331 333 334 335 333 331 330 329 326 323 319 316 312 306 300 294 289 283 276 269 261 252 243 235 227 218 210 206 205 206 208
282 283 284 285 286 287 288 288 289 290 291 292 293 295 297 298 299 300 301 302 303 304 306 307 308 310 311 313 314 314 315 315 316 317 318 318 318 319 319 318 318 318 319 319 319 319 319 320 322 325 328 330 332 334 336 336 336 337 336 334 332 332 330 326 322 319 315 310 303 295 288 282 274 266 259 249 237 226 218 211 206 203 202 203 205
282 283 284 284 285 286 287 287 288 289 290 292 294 295 296 297 298 299 300 301 303 304 306 307 309 310 312 313 314 314 315 315 316 317 318 318 318 318 318 318 318 319 319 319 320 320 320 321 324 326 329 333 336 337 338 337 337 338 338 336 335 335 333 330 326 323 319 313 306 298 292 284 275 264 254 244 231 217 209 205 202 200 200 202 203
281 282 283 284 284 285 286 287 288 289 291 292 293 294 295 296 297 298 300 301 303 305 306 308 309 311 313 313 313 314 315 316 317 317 318 318 318 318 318 318 318 319 320 319 319 319 320 322 324 327 331 335 338 338 338 338 337 338 339 338 338 338 337 333 330 328 323 317 310 303 297 289 277 262 246 233 221 209 203 201 199 198 199 201 202
281 281 282 283 284 284 285 286 288 289 291 292 292 293 294 295 297 298 300 301 303 305 307 309 310 312 312 312 313 314 315 316 317 317 317 318 317 317 317 318 318 319 319 318 318 319 320 322 324 328 333 337 339 338 339 339 338 338 340 340 339 340 340 337 334 332 328 322 314 306 298 289 276 259 240 223 213 204 199 197 198 198 199 200 201
280 281 281 282 283 284 285 286 288 289 290 290 291 293 294 296 297 299 301 303 304 306 308 309 310 311 311 312 313 314 315 316 316 317 317 316 317 317 317 317 318 318 318 317 318 320 321 323 326 330 334 337 338 338 340 340 340 340 341 341 340 341 342 340 337 334 331 324 316 307 297 283 267 249 232 217 207 202 198 196 196 198 199 200 201
279 280 281 282 282 284 285 287 288 288 289 290 292 294 295 297 299 300 302 303 305 306 308 309 310 310 311 312 313 314 315 315 316 316 316 316 316 316 316 317 317 317 316 317 318 321 323 326 328 331 334 337 338 339 341 342 343 342 342 343 343 342 342 343 340 337 333 327 318 310 300 283 259 236 221 212 204 201 199 197 197 197 199 200 201
279 280 280 281 283 284 285 286 287 289 290 292 294 295 296 298 299 301 302 303 304 306 307 308 308 309 311 312 314 314 314 315 315 315 315 315 315 315 316 317 317 316 316 318 320 323 326 328 330 331 333 336 338 340 341 344 346 345 343 344 344 343 344 344 343 339 335 329 320 313 303 282 253 226 214 208 204 200 199 199 198 198 199 199 200
279 280 281 282 283 284 284 286 288 290 292 293 294 296 297 298 299 300 301 302 304 305 306 307 308 310 311 313 313 314 314 314 314 314 314 314 314 315 316 316 316 316 318 320 322 325 327 329 330 331 332 335 337 340 342 345 347 348 346 345 346 346 346 346 347 343 338 331 322 313 300 276 246 221 210 207 206 203 201 200 200 199 199 199 200
278 279 281 282 283 284 286 288 290 291 293 294 295 295 296 297 298 299 300 301 303 304 305 307 309 311 312 312 313 313 313 313 313 313 313 314 314 315 315 315 316 317 318 320 322 325 328 330 330 331 332 334 337 340 343 345 348 351 350 348 348 348 347 347 349 348 342 333 323 311 296 274 247 226 212 205 206 208 206 203 202 201 200 200 200
280 281 283 284 286 289 290 292 292 293 293 294 294 295 296 297 298 299 300 301 302 304 306 308 310 311 311 312 312 312 312 312 312 312 312 313 314 315 315 316 317 317 318 320 324 327 329 330 330 331 332 334 336 339 342 345 348 351 353 352 351 351 350 349 349 350 346 338 326 312 297 280 253 232 218 208 205 207 209 208 206 205 204 203 201
282 284 285 287 289 291 291 291 291 291 292 292 293 294 295 296 297 298 299 301 303 306 308 309 310 310 310 311 311 312 311 311 311 311 311 312 313 314 315 315 315 317 319 322 326 328 329 329 331 332 333 334 336 339 342 345 347 351 354 354 353 353 353 351 350 351 350 343 330 314 299 283 259 236 223 213 207 206 207 208 208 207 206 206 205
281 284 286 287 289 290 289 289 289 290 291 292 292 293 294 295 296 298 300 303 306 308 309 309 309 309 310 310 310 310 310 309 309 310 310 311 311 311 312 314 317 319 322 324 325 327 328 330 331 332 334 335 336 338 341 344 347 350 353 355 355 355 355 355 354 353 353 348 337 320 302 285 266 247 231 220 213 210 208 208 208 208 207 207 206
281 284 286 288 289 289 288 289 290 291 291 291 291 292 293 295 297 300 303 306 307 308 308 308 308 309 309 309 309 309 308 307 307 308 309 310 311 313 315 318 320 321 322 322 324 326 328 330 331 332 334 336 337 339 341 343 346 349 351 355 357 357 356 356 356 355 354 352 344 328 308 288 271 256 241 227 219 215 211 209 208 208 208 207 206
282 284 287 288 288 288 289 290 289 289 288 289 290 292 295 298 301 303 305 306 307 306 306 306 307 308 308 308 308 307 307 307 307 308 310 311 313 315 317 318 319 319 320 322 324 325 328 330 332 333 334 335 337 339 341 343 345 347 350 353 357 358 358 357 357 355 354 353 349 337 317 294 276 261 248 236 226 219 214 211 210 209 208 207 207
281 283 286 287 288 289 289 289 288 289 290 292 295 298 300 302 303 304 305 305 304 304 304 305 306 306 306 306 306 306 306 307 307 308 309 310 312 314 315 316 318 319 319 321 323 325 327 330 332 333 334 335 338 340 341 343 344 346 348 351 354 357 358 358 357 357 355 352 350 344 329 305 283 266 253 241 233 226 219 214 212 211 209 208 207
280 282 285 287 288 288 288 289 291 294 296 297 299 300 301 302 302 303 303 303 302 302 303 305 305 304 304 304 304 304 305 305 307 308 308 310 311 313 314 315 316 317 318 320 323 325 327 329 331 334 335 336 337 340 342 343 344 345 347 349 351 353 356 358 359 358 355 353 351 348 338 320 294 274 260 247 238 232 226 219 215 212 211 210 209
281 283 284 286 287 288 290 293 295 296 297 298 298 299 299 300 300 301 300 300 300 301 303 303 303 302 302 302 303 303 304 305 306 308 309 310 311 312 313 314 315 316 319 321 324 325 327 328 330 333 336 336 337 339 341 343 344 344 346 347 349 350 352 355 357 357 356 355 353 350 344 333 310 285 268 254 243 236 231 226 220 216 213 212 211
280 281 283 285 288 290 292 293 294 295 296 296 297 297 298 298 298 298 298 299 299 300 301 301 301 300 301 302 302 303 303 304 306 307 309 310 311 312 313 314 315 317 319 321 323 324 326 327 329 333 335 336 337 338 340 342 343 344 345 346 347 348 349 351 353 356 356 356 354 351 347 340 326 302 278 263 252 242 235 231 226 222 217 214 213
279 281 284 286 288 289 290 291 292 293 293 294 294 295 296 296 296 296 297 298 299 299 299 299 299 299 300 301 302 303 304 304 305 307 308 309 309 310 312 313 315 317 319 321 322 323 325 327 329 331 334 336 336 337 338 340 342 344 345 346 346 346 347 347 348 351 353 354 353 350 347 343 334 318 294 273 259 249 242 236 231 227 223 219 216
281 283 284 286 287 288 289 290 290 291 291 292 293 293 293 293 294 295 296 297 297 297 298 298 299 300 300 300 301 303 304 305 307 309 310 310 311 311 312 314 315 317 318 320 321 323 325 327 328 330 332 334 335 336 337 339 341 343 344 344 345 345 345 345 345 345 347 349 350 350 347 343 338 328 313 289 268 256 248 242 236 232 228 224 221
282 283 284 285 286 286 287 287 288 289 289 290 290 291 291 292 293 294 295 295 295 296 297 298 299 300 301 301 302 303 304 305 308 309 310 310 310 310 311 312 314 315 316 318 320 322 324 326 327 328 330 332 334 336 337 338 339 340 341 342 343 344 344 343 342 342 342 343 344 345 345 342 337 331 321 305 285 266 253 246 242 237 233 229 226
281 282 283 283 284 284 285 286 287 287 287 288 289 290 291 292 292 293 293 294 295 296 297 298 299 299 300 301 303 304 305 306 308 308 309 309 309 309 310 312 313 315 316 317 318 321 323 324 326 327 329 331 333 334 335 336 337 337 338 339 340 341 341 341 340 340 339 339 339 339 339 339 336 331 323 313 300 282 265 253 246 241 238 234 231
280 280 281 282 283 283 284 284 285 285 286 287 288 289 290 291 292 292 293 294 295 297 298 298 298 298 299 299 301 302 304 305 306 307 307 308 308 309 309 311 312 313 313 315 316 319 321 323 324 326 327 329 330 332 333 334 334 335 336 336 337 337 338 339 338 337 337 336 335 335 335 334 332 330 324 316 306 294 281 266 254 246 241 238 236
279 280 280 281 282 282 283 283 284 285 285 286 287 288 289 290 291 292 293 294 296 297 298 298 298 298 298 299 299 300 301 301 302 303 304 305 306 308 309 310 312 312 313 314 316 319 321 322 323 324 326 327 329 329 330 331 331 331 332 332 333 333 334 335 335 335 334 333 332 332 331 329 328 326 323 318 310 301 290 278 267 256 248 243 239
278 279 280 281 281 282 282 283 283 284 285 286 287 288 288 289 290 291 293 294 295 295 296 296 297 298 299 299 300 300 301 301 301 302 302 303 305 306 307 309 310 311 311 313 315 318 319 320 321 322 323 324 325 326 326 326 327 327 327 328 328 329 330 330 331 331 331 331 330 329 328 326 324 322 319 316 312 305 296 286 276 267 258 251 245
Height
10675 10674 10673 10673 10672 10671 10670 10668 10665 10663 10660 10657 10654 10652 10649 10647 10644 10642 10640 10637 10635 10632 10629 10626 10622 10619 10616 10613 10610 10607 10604 10600 10597 10593 10590 10586 10582 10578 10575 10571 10567 10564 10560 10557 10553 10549 10545 10541 10538 10534 10531 10528 10526 10523 10521 10520 10518 10516 10516 10515 10513 10513 10514 10515 10518 10519 10515 10511 10512 10511 10508 10508 10507 10507 10510 10514 10516 10518 10522 10526 10529 10532 10537 10541 10545
10670 10669 10668 10667 10666 10665 10663 10661 10658 10656 10653 10650 10648 10645 10643 10640 10638 10636 10633 10631 10628 10625 10622 10619 10616 10612 10609 10606 10603 10600 10596 10593 10589 10585 10581 10577 10573 10569 10565 10561 10558 10554 10551 10547 10543 10539 10534 10530 10527 10524 10521 10518 10515 10513 10511 10508 10507 10505 10503 10503 10502 10501 10501 10502 10503 10505 10504 10499 10498 10499 10498 10497 10497 10495 10495 10499 10502 10504 10509 10513 10516 10520 10524 10528 10533
10664 10663 10662 10661 10660 10658 10656 10653 10651 10649 10646 10643 10640 10638 10636 10633 10631 10629 10626 10624 10621 10618 10615 10612 10609 10605 10602 10599 10596 10592 10589 10585 10581 10577 10573 10569 10564 10560 10556 10552 10548 10544 10540 10536 10532 10528 10524 10519 10515 10512 10510 10507 10504 10502 10500 10497 10495 10494 10492 10490 10490 10489 10488 10489 10490 10491 10492 10489 10486 10486 10486 10485 10486 10485 10483 10485 10488 10491 10495 10499 10503 10507 10511 10515 10521
10658 10657 10656 10654 10652 10650 10648 10646 10644 10642 10639 10636 10633 10631 10629 10626 10624 10622 10619 10617 10614 10611 10608 10605 10602 10598 10595 10592 10588 10584 10580 10576 10572 10568 10564 10560 10556 10551 10547 10542 10538 10534 10529 10525 10521 10517 10513 10509 10505 10501 10498 10496 10493 10491 10489 10486 10484 10482 10480 10478 10477 10477 10475 10475 10476 10476 10478 10478 10474 10473 10474 10473 10473 10473 10472 10471 10474 10478 10481 10485 10489 10494 10499 10504 10510
10651 10650 10648 10647 10645 10643 10641 10640 10637 10634 10631 10629 10626 10624 10622 10619 10617 10615 10613 10610 10607 10604 10601 10598 10595 10591 10588 10584 10580 10576 10572 10568 10564 10560 10555 10551 10546 10542 10538 10533 10529 10524 10520 10515 10511 10507 10503 10499 10495 10491 10487 10484 10482 10479 10477 10474 10472 10469 10468 10467 10465 10464 10463 10462 10461 10461 10462 10463 10462 10460 10460 10460 10460 10459 10458 10459 10461 10465 10468 10471 10475 10481 10488 10492 10496
10644 10643 10641 10640 10638 10637 10635 10633 10630 10627 10624 10621 10619 10617 10615 10613 10611 10608 10606 10603 10600 10597 10594 10591 10588 10584 10580 10576 10572 10568 10564 10560 10556 10551 10547 10542 10538 10534 10529 10524 10519 10515 10510 10506 10501 10497 10493 10489 10485 10481 10476 10473 10470 10467 10465 10462 10459 10457 10455 10454 10452 10451 10450 10448 10448 10447 10447 10447 10447 10446 10445 10446 10447 10446 10444 10445 10449 10452 10454 10458 10462 10468 10475 10479 10483
10637 10636 10634 10633 10632 10630 10628 10625 10622 10619 10616 10614 10613 10610 10608 10606 10604 10602 10599 10596 10593 10590 10587 10584 10580 10576 10572 10568 10565 10560 10556 10552 10547 10543 10538 10534 10529 10525 10520 10515 10510 10505 10500 10495 10491 10487 10483 10479 10475 10470 10466 10461 10457 10455 10453 10450 10446 10443 10442 10440 10439 10437 10436 10434 10433 10433 10432 10431 10431 10431 10431 10431 10432 10432 10430 10431 10435 10438 10440 10445 10449 10454 10460 10466 10471
10630 10629 10628 10627 10625 10623 10621 10618 10615 10612 10610 10608 10606 10604 10602 10600 10598 10595 10592 10589 10586 10583 10580 10576 10572 10569 10564 10560 10556 10552 10548 10543 10539 10535 10530 10525 10521 10516 10511 10506 10501 10495 10490 10485 10481 10477 10472 10468 10464 10460 10455 10450 10446 10442 10440 10438 10435 10431 10428 10426 10425 10423 10421 10420 10419 10418 10417 10416 10415 10414 10415 10415 10416 10418 10418 10417 10420 10424 10427 10432 10437 10440 10446 10454 10459
10624 10623 10622 10620 10618 10616 10614 10611 10608 10606 10604 10602 10600 10598 10596 10594 10591 10588 10585 10582 10579 10576 10573 10569 10565 10561 10556 10552 10548 10544 10539 10534 10530 10525 10521 10516 10511 10506 10501 10496 10491 10486 10480 10475 10470 10466 10462 10458 10453 10449 10445 10439 10434 10430 10427 10424 10421 10419 10415 10412 10411 10409 10407 10406 10405 10403 10402 10400 10399 10398 10399 10399 10400 10402 10405 10404 10405 10409 10413 10419 10425 10428 10431 10440 10446
10618 10617 10615 10613 10611 10609 10608 10605 10602 10600 10597 10595 10593 10592 10589 10587 10584 10581 10578 10575 10572 10568 10565 10561 10557 10553 10548 10544 10539 10535 10530 10525 10520 10515 10511 10506 10502 10497 10492 10487 10481 10477 10471 10465 10461 10456 10451 10447 10443 10439 10434 10429 10423 10418 10413 10410 10406 10404 10401 10399 10397 10396 10394 10392 10390 10389 10387 10385 10383 10381 10381 10382 10382 10385 10389 10390 10391 10395 10399 10405 10413 10417 10418 10425 10432
10612 10610 10608 10607 10605 10603 10601 10598 10596 10593 10591 10589 10587 10585 10582 10579 10576 10573 10570 10567 10564 10561 10557 10553 10548 10544 10540 10535 10531 10526 10521 10517 10512 10507 10502 10498 10493 10487 10483 10478 10473 10468 10463 10457 10452 10446 10442 10437 10432 10428 10423 10418 10413 10407 10402 10397 10393 10389 10386 10384 10383 10381 10381 10379 10377 10374 10373 10371 10368 10365 10365 10366 10366 10367 10372 10376 10378 10381 10385 10391 10399 10405 10407 10412 10418
10604 10603 10601 10600 10598 10596 10594 10592 10589 10586 10584 10582 10580 10577 10575 10572 10569 10566 10563 10560 10556 10553 10549 10544 10540 10535 10531 10527 10522 10518 10513 10508 10504 10499 10494 10489 10484 10479 10474 10469 10464 10459 10454 10449 10443 10438 10433 10427 10422 10418 10413 10408 10403 10397 10392 10386 10381 10377 10373 10370 10368 10366 10364 10364 10363 10361 10360 10358 10355 10352 10350 10351 10352 10351 10354 10360 10365 10368 10372 10377 10384 10392 10397 10401 10406
10597 10596 10594 10593 10591 10589 10587 10585 10582 10579 10577 10575 10573 10570 10567 10564 10562 10559 10555 10552 10549 10545 10541 10536 10532 10527 10523 10519 10515 10510 10506 10501 10496 10491 10486 10481 10476 10471 10466 10461 10456 10451 10446 10440 10434 10429 10425 10419 10414 10409 10403 10399 10394 10388 10382 10377 10371 10366 10362 10358 10354 10351 10348 10346 10346 10347 10347 10346 10344 10340 10336 10337 10338 10338 10338 10344 10351 10355 10359 10364 10370 10379 10386 10391 10395
10591 10589 10587 10586 10584 10582 10580 10578 10575 10572 10570 10568 10566 10563 10560 10557 10555 10552 10548 10545 10541 10537 10533 10529 10524 10520 10516 10512 10507 10503 10498 10493 10488 10483 10478 10474 10469 10464 10459 10454 10448 10443 10438 10432 10425 10420 10416 10411 10406 10400 10394 10389 10385 10379 10373 10368 10363 10357 10351 10347 10342 10338 10335 10332 10331 10331 10331 10331 10331 10329 10326 10324 10324 10324 10323 10328 10337 10342 10346 10351 10356 10365 10374 10379 10384
10584 10582 10580 10579 10577 10575 10573 10570 10568 10566 10563 10561 10559 10556 10554 10551 10548 10545 10541 10538 10534 10530 10526 10522 10517 10513 10508 10504 10500 10496 10491 10486 10481 10476 10471 10466 10461 10456 10451 10446 10440 10435 10429 10423 10417 10411 10406 10402 10397 10391 10385 10380 10375 10371 10365 10360 10355 10349 10342 10336 10331 10327 10323 10321 10319 10318 10317 10316 10316 10316 10315 10313 10311 10311 10311 10315 10322 10328 10333 10338 10343 10351 10361 10368 10374
10577 10575 10573 10571 10570 10568 10566 10563 10561 10559 10557 10555 10553 10550 10547 10544 10541 10538 10535 10531 10527 10523 10519 10515 10511 10506 10502 10497 10493 10488 10483 10478 10473 10468 10464 10459 10454 10449 10444 10438 10433 10427 10421 10415 10409 10402 10397 10392 10388 10382 10376 10371 10366 10361 10356 10351 10345 10340 10333 10326 10320 10315 10312 10309 10307 10306 10305 10304 10303 10303 10302 10301 10299 10299 10301 10304 10309 10314 10320 10326 10331 10339 10349 10359 10365
10570 10568 10566 10565 10564 10562 10559 10557 10555 10552 10550 10548 10546 10544 10540 10538 10534 10531 10528 10524 10520 10517 10512 10508 10504 10499 10495 10490 10485 10481 10476 10471 10466 10461 10456 10451 10446 10441 10436 10430 10424 10418 10412 10406 10400 10394 10388 10383 10378 10374 10368 10363 10358 10352 10347 10342 10337 10331 10325 10318 10312 10306 10302 10298 10295 10294 10294 10293 10292 10291 10290 10289 10288 10289 10291 10293 10296 10300 10308 10315 10321 10328 10339 10350 10356
10563 10562 10560 10559 10557 10555 10553 10551 10548 10546 10544 10542 10540 10537 10534 10531 10528 10524 10521 10517 10514 10510 10506 10501 10497 10493 10488 10483 10479 10474 10469 10464 10459 10454 10449 10444 10439 10434 10428 10422 10416 10410 10403 10397 10391 10386 10381 10375 10370 10365 10360 10355 10349 10344 10339 10334 10329 10324 10318 10311 10304 10299 10294 10290 10285 10283 10282 10282 10281 10281 10280 10279 10278 10279 10282 10283 10285 10290 10298 10305 10311 10319 10330 10339 10344
10556 10555 10554 10552 10551 10549 10546 10544 10542 10540 10538 10535 10533 10530 10527 10524 10521 10518 10514 10510 10507 10503 10499 10495 10490 10486 10482 10477 10472 10467 10462 10457 10452 10447 10442 10437 10432 10426 10420 10414 10408 10401 10395 10389 10383 10377 10373 10368 10362 10357 10352 10347 10342 10336 10331 10326 10322 10317 10311 10304 10298 10292 10287 10283 10279 10275 10273 10272 10272 10271 10270 10270 10269 10270 10273 10275 10277 10282 10288 10295 10302 10311 10320 10327 10332
10550 10549 10547 10546 10544 10542 10540 10538 10535 10533 10531 10529 10526 10523 10521 10518 10514 10511 10507 10503 10500 10496 10492 10488 10484 10479 10475 10470 10465 10460 10455 10450 10445 10440 10435 10430 10425 10419 10413 10406 10400 10393 10387 10381 10375 10370 10365 10360 10355 10350 10345 10340 10335 10329 10324 10319 10315 10310 10304 10297 10291 10286 10281 10276 10272 10269 10266 10263 10263 10263 10262 10262 10262 10263 10265 10267 10270 10275 10280 10287 10295 10304 10311 10316 10322
10543 10542 10541 10539 10537 10535 10534 10531 10529 10527 10525 10522 10519 10517 10514 10511 10507 10504 10500 10497 10493 10489 10485 10481 10477 10473 10469 10464 10459 10454 10449 10444 10439 10434 10429 10424 10418 10412 10405 10399 10392 10386 10380 10374 10369 10364 10359 10354 10349 10344 10339 10334 10329 10324 10318 10313 10309 10304 10296 10289 10283 10279 10275 10270 10265 10262 10260 10257 10256 10256 10255 10255 10256 10257 10258 10260 10264 10268 10274 10280 10287 10296 10302 10308 10315
10537 10536 10534 10533 10531 10529 10527 10525 10523 10521 10518 10515 10513 10510 10507 10504 10501 10497 10494 10490 10486 10482 10479 10475 10471 10466 10462 10457 10453 10448 10444 10438 10433 10428 10423 10417 10411 10405 10399 10393 10386 10380 10374 10368 10363 10358 10353 10349 10344 10339 10335 10330 10325 10319 10313 10307 10302 10297 10289 10282 10276 10272 10269 10265 10260 10257 10254 10252 10250 10250 10250 10250 10250 10251 10253 10255 10259 10263 10268 10274 10280 10288 10295 10300 10307
10530 10529 10527 10526 10524 10522 10520 10518 10516 10514 10511 10508 10506 10503 10500 10497 10494 10491 10487 10483 10479 10476 10472 10468 10464 10460 10456 10451 10445 10440 10436 10431 10426 10421 10416 10411 10405 10399 10393 10387 10381 10376 10370 10364 10358 10353 10348 10343 10339 10335 10330 10326 10321 10315 10308 10301 10296 10291 10284 10277 10271 10267 10263 10259 10255 10252 10250 10247 10246 10245 10245 10245 10246 10247 10249 10252 10255 10259 10263 10268 10275 10282 10288 10293 10300
10523 10522 10520 10519 10517 10515 10513 10511 10509 10507 10504 10501 10499 10496 10493 10491 10487 10484 10480 10476 10472 10469 10465 10462 10458 10453 10449 10444 10439 10434 10429 10424 10419 10414 10410 10405 10399 10393 10387 10381 10376 10370 10365 10359 10354 10348 10343 10339 10334 10330 10327 10322 10316 10309 10303 10297 10291 10285 10279 10273 10267 10263 10259 10255 10251 10248 10246 10244 10242 10242 10241 10242 10243 10244 10246 10248 10252 10255 10259 10264 10270 10276 10282 10288 10294
10516 10515 10514 10512 10510 10508 10506 10504 10502 10500 10497 10495 10492 10489 10486 10484 10480 10477 10473 10469 10465 10462 10458 10454 10451 10447 10442 10438 10433 10428 10423 10418 10413 10408 10403 10398 10393 10387 10382 10376 10371 10365 10360 10355 10349 10344 10339 10334 10330 10327 10322 10317 10311 10305 10298 10292 10287 10280 10275 10269 10264 10259 10255 10251 10247 10245 10243 10241 10239 10239 10239 10239 10240 10241 10242 10245 10248 10251 10255 10260 10265 10272 10277 10283 10289
10510 10508 10507 10505 10503 10502 10500 10498 10496 10493 10491 10488 10485 10482 10479 10477 10473 10469 10465 10462 10458 10455 10451 10448 10444 10440 10436 10432 10427 10422 10417 10413 10408 10403 10398 10392 10387 10382 10376 10371 10366 10361 10356 10350 10345 10340 10335 10331 10326 10322 10318 10313 10307 10301 10294 10288 10282 10276 10270 10265 10261 10256 10252 10248 10244 10242 10240 10238 10237 10236 10236 10236 10236 10238 10239 10242 10245 10248 10252 10257 10262 10268 10273 10279 10285
10503 10502 10500 10499 10497 10495 10493 10491 10489 10486 10483 10481 10478 10475 10472 10469 10465 10461 10458 10455 10451 10448 10445 10441 10438 10434 10430 10426 10421 10416 10411 10407 10402 10397 10392 10387 10381 10376 10371 10366 10361 10356 10351 10346 10340 10335 10330 10326 10322 10318 10314 10309 10303 10296 10290 10284 10279 10274 10268 10262 10258 10254 10250 10246 10242 10240 10238 10236 10235 10234 10233 10233 10234 10235 10237 10240 10242 10246 10250 10254 10259 10264 10269 10275 10281
10496 10495 10493 10492 10490 10488 10486 10483 10481 10479 10476 10474 10471 10468 10465 10461 10458 10454 10451 10448 10445 10442 10438 10435 10432 10428 10424 10420 10415 10410 10405 10401 10396 10391 10386 10381 10376 10371 10366 10361 10356 10351 10346 10341 10336 10331 10326 10322 10318 10314 10310 10305 10299 10293 10286 10280 10275 10271 10266 10260 10255 10251 10247 10244 10241 10239 10236 10234 10233 10232 10232 10233 10233 10234 10236 10238 10241 10244 10248 10252 10257 10261 10266 10271 10278
10489 10488 10486 10485 10483 10481 10478 10476 10473 10471 10469 10467 10464 10461 10458 10454 10451 10448 10444 10441 10438 10435 10432 10429 10425 10422 10418 10414 10410 10405 10400 10395 10390 10385 10380 10376 10371 10366 10361 10356 10352 10347 10342 10337 10332 10328 10323 10319 10315 10312 10308 10303 10298 10292 10285 10278 10272 10268 10263 10258 10253 10250 10246 10242 10239 10237 10235 10233 10232 10231 10231 10232 10233 10234 10235 10237 10240 10243 10246 10251 10255 10259 10264 10269 10276
10482 10481 10480 10478 10476 10473 10471 10468 10466 10464 10462 10460 10457 10454 10451 10448 10444 10441 10438 10434 10432 10429 10426 10423 10420 10416 10412 10408 10404 10399 10394 10389 10384 10380 10375 10370 10366 10362 10357 10352 10347 10343 10339 10335 10330 10326 10321 10317 10313 10309 10305 10301 10297 10291 10286 10279 10272 10266 10261 10256 10252 10248 10245 10241 10238 10236 10234 10232 10231 10230 10230 10231 10232 10233 10235 10237 10239 10242 10245 10249 10254 10258 10262 10267 10273
10475 10474 10472 10470 10468 10466 10464 10462 10459 10457 10455 10452 10449 10447 10444 10441 10437 10434 10431 10428 10425 10422 10420 10417 10414 10410 10407 10402 10398 10393 10388 10383 10379 10374 10370 10366 10362 10357 10353 10349 10344 10340 10336 10332 10328 10323 10319 10314 10309 10306 10302 10299 10295 10291 10285 10279 10272 10265 10260 10255 10250 10246 10244 10240 10237 10235 10233 10231 10230 10229 10230 10230 10231 10233 10235 10237 10239 10242 10245 10248 10252 10256 10261 10265 10271
10467 10466 10464 10463 10461 10458 10456 10455 10452 10450 10447 10445 10442 10440 10437 10434 10431 10428 10425 10422 10419 10416 10414 10411 10408 10404 10401 10396 10392 10387 10382 10378 10374 10369 10365 10361 10357 10353 10349 10345 10341 10337 10333 10330 10325 10321 10316 10311 10307 10303 10299 10296 10293 10289 10284 10278 10272 10265 10260 10255 10250 10246 10243 10240 10237 10235 10233 10231 10229 10229 10230 10230 10231 10233 10234 10236 10239 10241 10244 10247 10251 10254 10259 10264 10269
10459 10457 10456 10455 10453 10452 10450 10447 10445 10443 10440 10438 10435 10433 10430 10427 10425 10422 10419 10416 10414 10411 10408 10405 10402 10398 10394 10390 10386 10381 10377 10372 10368 10364 10360 10356 10352 10349 10345 10341 10338 10334 10330 10327 10323 10318 10314 10309 10305 10301 10297 10294 10291 10287 10282 10277 10271 10265 10259 10254 10250 10246 10243 10240 10237 10235 10233 10231 10229 10229 10229 10230 10231 10232 10234 10236 10238 10240 10243 10246 10250 10253 10257 10262 10268
10450 10449 10448 10447 10446 10445 10443 10440 10438 10436 10434 10431 10429 10426 10424 10421 10419 10416 10414 10411 10408 10405 10403 10400 10397 10393 10389 10384 10380 10375 10371 10367 10363 10359 10356 10352 10348 10345 10342 10338 10335 10331 10327 10324 10320 10316 10312 10308 10304 10299 10295 10291 10288 10284 10280 10276 10271 10265 10259 10254 10249 10246 10242 10240 10237 10235 10233 10231 10230 10229 10229 10230 10231 10232 10233 10235 10238 10240 10242 10245 10248 10252 10256 10261 10266
10443 10442 10441 10440 10439 10437 10436 10434 10432 10430 10427 10425 10423 10420 10418 10415 10413 10411 10408 10405 10402 10400 10397 10393 10390 10386 10382 10378 10374 10370 10366 10362 10358 10354 10351 10347 10344 10341 10338 10335 10332 10329 10325 10322 10318 10315 10311 10307 10302 10298 10293 10289 10285 10282 10278 10274 10270 10265 10259 10254 10249 10245 10242 10239 10237 10235 10233 10232 10230 10229 10229 10229 10230 10232 10233 10235 10237 10240 10242 10245 10247 10250 10254 10258 10263
10435 10434 10433 10432 10431 10430 10428 10427 10425 10423 10421 10419 10416 10414 10412 10409 10407 10404 10402 10399 10397 10394 10391 10388 10384 10380 10376 10372 10368 10365 10361 10357 10353 10349 10346 10343 10340 10338 10335 10332 10329 10326 10323 10320 10316 10313 10309 10305 10301 10297 10292 10287 10283 10280 10276 10272 10269 10265 10260 10255 10251 10246 10242 10239 10237 10235 10233 10232 10230 10229 10229 10229 10230 10231 10233 10234 10236 10239 10242 10245 10248 10251 10254 10257 10261
10427 10427 10426 10425 10425 10424 10422 10420 10419 10417 10415 10413 10410 10408 10406 10403 10401 10398 10396 10393 10390 10387 10383 10380 10377 10374 10371 10367 10363 10359 10356 10352 10349 10346 10342 10339 10337 10334 10332 10329 10327 10324 10320 10317 10314 10311 10307 10303 10300 10295 10291 10286 10282 10278 10274 10270 10267 10263 10259 10255 10251 10247 10244 10240 10238 10235 10233 10232 10231 10230 10229 10229 10230 10230 10232 10233 10235 10237 10240 10243 10247 10251 10255 10259 10262
10420 10420 10419 10419 10419 10418 10416 10414 10412 10410 10409 10406 10404 10402 10400 10397 10395 10392 10389 10387 10383 10380 10376 10372 10369 10366 10364 10362 10358 10355 10351 10348 10345 10342 10339 10337 10334 10332 10329 10327 10324 10320 10317 10314 10311 10309 10306 10302 10298 10294 10290 10285 10281 10276 10273 10269 10265 10262 10258 10255 10251 10247 10244 10240 10238 10236 10234 10232 10231 10230 10229 10229 10229 10230 10231 10233 10235 10237 10239 10242 10245 10249 10253 10258 10263
10413 10413 10413 10413 10413 10411 10409 10407 10406 10404 10402 10400 10398 10396 10394 10392 10389 10386 10383 10380 10377 10374 10371 10367 10364 10360 10357 10354 10352 10350 10347 10344 10341 10338 10336 10333 10330 10328 10325 10323 10320 10317 10315 10312 10310 10307 10304 10301 10297 10293 10289 10284 10280 10276 10272 10268 10264 10261 10257 10254 10250 10247 10243 10240 10238 10236 10234 10233 10231 10231 10230 10229 10229 10230 10231 10232 10234 10236 10238 10241 10244 10247 10251 10256 10261
10406 10406 10406 10406 10406 10404 10403 10401 10399 10398 10396 10394 10392 10390 10387 10385 10382 10379 10377 10374 10371 10368 10365 10362 10359 10356 10352 10349 10346 10343 10341 10339 10337 10334 10332 10329 10326 10324 10321 10319 10317 10315 10313 10310 10308 10305 10302 10299 10295 10291 10287 10283 10279 10275 10271 10267 10264 10260 10257 10254 10251 10247 10244 10241 10239 10236 10234 10233 10232 10231 10230 10229 10229 10229 10230 10232 10233 10234 10237 10239 10242 10245 10248 10253 10257
10401 10400 10400 10399 10398 10397 10396 10394 10393 10391 10389 10387 10385 10382 10380 10378 10375 10373 10370 10368 10365 10362 10359 10356 10353 10350 10348 10345 10342 10339 10336 10334 10332 10330 10328 10326 10324 10321 10319 10317 10315 10312 10310 10308 10306 10303 10300 10297 10294 10290 10286 10282 10278 10274 10270 10266 10263 10260 10256 10253 10250 10248 10245 10242 10239 10237 10235 10233 10232 10231 10230 10230 10229 10229 10230 10231 10232 10233 10235 10237 10240 10243 10246 10250 10254
10396 10394 10393 10393 10392 10390 10389 10387 10386 10384 10381 10379 10377 10375 10373 10371 10369 10367 10364 10362 10359 10356 10354 10351 10348 10344 10342 10341 10338 10335 10332 10331 10329 10327 10325 10323 10321 10319 10317 10314 10312 10310 10308 10305 10303 10300 10298 10295 10292 10288 10284 10280 10277 10273 10269 10266 10262 10259 10256 10253 10250 10247 10245 10243 10240 10238 10235 10233 10232 10231 10230 10229 10229 10229 10229 10230 10231 10232 10233 10235 10237 10240 10243 10247 10250
10390 10388 10387 10386 10385 10383 10382 10380 10378 10376 10375 10373 10371 10369 10367 10365 10363 10361 10358 10356 10353 10350 10348 10346 10343 10339 10337 10336 10334 10332 10329 10327 10325 10323 10321 10319 10317 10316 10314 10312 10310 10308 10305 10302 10300 10297 10295 10292 10289 10286 10283 10279 10275 10272 10268 10265 10262 10259 10256 10253 10250 10247 10245 10243 10240 10238 10236 10234 10232 10231 10230 10229 10228 10228 10228 10229 10229 10230 10232 10233 10235 10237 10240 10243 10247
10384 10382 10381 10380 10379 10377 10375 10374 10372 10370 10368 10367 10365 10363 10361 10359 10357 10355 10352 10350 10347 10345 10343 10341 10338 10335 10332 10330 10329 10328 10326 10324 10322 10320 10318 10316 10314 10312 10310 10309 10307 10305 10303 10300 10298 10295 10292 10289 10287 10284 10281 10278 10274 10271 10267 10264 10261 10258 10255 10252 10250 10247 10245 10242 10240 10238 10236 10234 10232 10231 10230 10229 10228 10228 10228 10228 10228 10229 10230 10231 10233 10235 10237 10240 10243
10378 10376 10375 10374 10372 10371 10369 10367 10366 10364 10362 10360 10359 10357 10355 10353 10351 10348 10346 10344 10341 10339 10338 10336 10334 10331 10329 10326 10324 10323 10322 10321 10319 10317 10315 10313 10311 10310 10308 10306 10304 10302 10300 10298 10295 10293 10290 10287 10284 10281 10279 10276 10273 10269 10266 10263 10260 10258 10255 10252 10249 10247 10244 10242 10240 10238 10236 10234 10233 10231 10229 10228 10227 10227 10227 10227 10227 10228 10228 10229 10231 10232 10234 10236 10239
10371 10370 10369 10367 10366 10364 10363 10361 10360 10358 10356 10355 10353 10351 10349 10347 10345 10343 10341 10338 10336 10334 10332 10331 10329 10327 10325 10323 10321 10320 10318 10316 10315 10314 10312 10310 10308 10306 10304 10303 10301 10299 10297 10294 10292 10290 10287 10284 10281 10279 10276 10274 10271 10268 10265 10262 10259 10257 10254 10252 10249 10247 10244 10242 10240 10238 10236 10234 10233 10231 10229 10228 10227 10226 10226 10225 10226 10226 10227 10227 10228 10230 10231 10233 10235
10364 10363 10362 10360 10359 10358 10357 10355 10353 10352 10350 10349 10347 10345 10343 10341 10340 10338 10336 10334 10332 10330 10328 10326 10324 10323 10321 10320 10318 10317 10315 10313 10312 10310 10309 10307 10305 10303 10301 10300 10298 10296 10294 10292 10289 10287 10284 10282 10279 10276 10273 10271 10269 10266 10263 10261 10258 10255 10253 10251 10249 10246 10244 10242 10239 10237 10235 10233 10232 10231 10229 10228 10227 10226 10225 10224 10224 10224 10225 10225 10226 10227 10228 10230 10232
10357 10356 10355 10354 10353 10352 10350 10349 10347 10346 10345 10343 10341 10340 10338 10336 10334 10333 10331 10329 10327 10326 10324 10322 10321 10319 10318 10316 10314 10313 10311 10309 10308 10307 10305 10304 10302 10300 10298 10296 10294 10292 10290 10288 10286 10284 10282 10279 10277 10274 10271 10268 10266 10264 10262 10259 10257 10254 10252 10250 10248 10245 10243 10241 10239 10237 10235 10233 10231 10230 10228 10227 10226 10225 10224 10223 10223 10222 10222 10223 10223 10224 10225 10227 10228
10351 10350 10349 10347 10347 10345 10344 10343 10342 10340 10339 10337 10336 10334 10332 10331 10329 10328 10326 10324 10323 10321 10319 10318 10317 10316 10314 10313 10311 10309 10308 10306 10304 10303 10301 10300 10298 10296 10295 10293 10291 10289 10286 10284 10282 10280 10279 10276 10274 10272 10270 10267 10264 10262 10259 10257 10255 10253 10250 10248 10246 10244 10242 10240 10238 10236 10234 10232 10230 10229 10227 10226 10225 10224 10223 10222 10222 10221 10221 10221 10221 10221 10222 10223 10225
10345 10344 10343 10342 10341 10340 10338 10337 10336 10335 10333 10332 10331 10329 10327 10326 10324 10323 10322 10320 10318 10317 10315 10314 10312 10311 10310 10309 10307 10306 10304 10302 10301 10299 10298 10296 10295 10293 10291 10288 10286 10284 10282 10280 10278 10276 10274 10273 10271 10268 10266 10264 10262 10260 10257 10255 10253 10251 10249 10247 10244 10242 10240 10238 10236 10235 10233 10231 10229 10227 10226 10225 10223 10222 10222 10221 10220 10220 10219 10219 10218 10218 10219 10220 10221
10339 10338 10337 10336 10335 10334 10333 10332 10331 10329 10328 10327 10325 10324 10323 10321 10320 10318 10317 10315 10314 10313 10311 10310 10308 10307 10305 10304 10302 10301 10299 10298 10297 10295 10294 10292 10291 10289 10287 10286 10283 10281 10278 10276 10275 10273 10272 10270 10268 10266 10264 10261 10259 10257 10255 10253 10251 10249 10247 10245 10243 10241 10238 10236 10234 10232 10231 10229 10227 10226 10224 10223 10222 10221 10220 10219 10218 10218 10217 10217 10216 10216 10216 10216 10217